Regional Weather Roundup
Issued by NWS

Home | Current Version | Previous Version | Graphics & Text | Print | Product List | Glossary On
Versions: 1 2 3 4 5 6 7 8 9 10 11 12 13 14 15 16 17 18 19 20 21 22 23 24 25 26 27 28 29 30 31 32 33 34 35 36 37 38 39 40 41 42 43 44 45 46 47 48 49 50
000
ASUS43 KOAX 290802
RWRNE

WEATHER ROUNDUP FOR NEBRASKA
NATIONAL WEATHER SERVICE OMAHA NE
300 AM CDT THU SEP 29 2016

NOTES: SATELLITE DATA IS BEING USED TO AUGMENT CLOUD COVER ABOVE
       12000 FEET.
       "FAIR" INDICATES FEW OR NO CLOUDS BELOW 12,000 FEET WITH NO
       SIGNIFICANT WEATHER AND/OR OBSTRUCTIONS TO VISIBILITY.

  * THESE STATIONS DO NOT REPORT WEATHER SUCH AS RAIN...SNOW OR FOG.

NEZ001>004-019>022-054>056-290900-
NEBRASKA PANHANDLE

CITY           SKY/WX    TMP DP  RH WIND       PRES   REMARKS
SCOTTSBLUFF    CLEAR     51  41  68 E9        30.36S
ALLIANCE       CLEAR     43  37  79 SE5       30.37R
CHADRON        CLEAR     56  36  47 S10       30.34S
KIMBALL        CLEAR     48  40  73 S6        30.39S
SIDNEY         CLEAR     48  37  65 S8        30.38F
$$

NEZ057>060-069>072-079>082-290900-
SOUTHWEST NEBRASKA

CITY           SKY/WX    TMP DP  RH WIND       PRES   REMARKS
NORTH PLATTE   CLOUDY    40  37  89 E3        30.39R
IMPERIAL       CLOUDY    45  35  68 CALM      30.39R
LEXINGTON      CLOUDY    41  38  87 CALM      30.39R
MCCOOK         CLOUDY    45  38  76 NE5       30.38R
OGALLALA       CLEAR     43  36  77 CALM      30.39S
$$

NEZ005>010-023>029-035>040-094-290900-
NORTH CENTRAL NEBRASKA

CITY           SKY/WX    TMP DP  RH WIND       PRES   REMARKS
VALENTINE      CLOUDY    41  38  89 CALM      30.38S
AINSWORTH      CLOUDY    40  40  97 S3        30.38S
BROKEN BOW     CLOUDY    40  38  93 CALM      30.39R
O`NEILL        CLEAR     44  42  95 CALM      30.40S
ORD            CLOUDY    38  34  85 CALM      30.38S
THEDFORD       CLOUDY    40  38  95 CALM      30.40R
$$

NEZ041-046>049-061>064-073>077-083>087-290900-
SOUTH CENTRAL NEBRASKA

CITY           SKY/WX    TMP DP  RH WIND       PRES   REMARKS
GRAND ISLAND   CLOUDY    42  40  92 NW3       30.39R
AURORA         CLOUDY    43  42  95 NE6       30.38R
HASTINGS       CLOUDY    42  38  85 NW3       30.39R
HEBRON         CLOUDY    44  42  93 CALM      30.36S
HOLDREGE       CLOUDY    44  40  85 CALM      30.38R
KEARNEY *      CLOUDY    43  37  81 CALM      30.38R
YORK           CLOUDY    45  43  93 CALM      30.38S
$$

NEZ011>018-030>034-042>045-290900-
NORTHEAST NEBRASKA

CITY           SKY/WX    TMP DP  RH WIND       PRES   REMARKS
NORFOLK        CLOUDY    40  39  97 W3        30.39R
ALBION         CLOUDY    39  38  94 NW5       30.39S
BLAIR          CLEAR     49  46  89 N7        30.36R
FREMONT        CLEAR     45  44  97 CALM      30.38R
TEKAMAH        CLEAR     45  43  93 N8        30.37R
WAYNE          CLOUDY    39  38  97 CALM      30.40R
$$

NEZ050>053-065>068-078-088>093-290900-
SOUTHEAST NEBRASKA

CITY           SKY/WX    TMP DP  RH WIND       PRES   REMARKS
LINCOLN        CLEAR     45  43  93 N7        30.38R
OMAHA EPPLEY   CLEAR     47  43  86 N5        30.36R
BEATRICE       CLEAR     46  45  94 CALM      30.36R
FALLS CITY     CLEAR     49  46  90 NW6       30.32R
NEBRASKA CITY  CLEAR     49  45  83 N6        30.34S
PLATTSMOUTH    CLEAR     49  44  85 N3        30.35R
$$

NEZ044-045-051>053-067-290900-
OMAHA AREA

CITY           SKY/WX    TMP DP  RH WIND       PRES   REMARKS
OMAHA EPPLEY   CLEAR     47  43  86 N5        30.36R
BLAIR          CLEAR     49  46  89 N7        30.36R
FREMONT        CLEAR     45  44  97 CALM      30.38R
MILLARD        CLEAR     49  46  88 NW5       30.36R
PLATTSMOUTH    CLEAR     49  44  85 N3        30.35R
WAHOO          FAIR      47  44  91 NW6       30.38R
$$



USA.gov is the U.S. government's official web portal to all federal, state and local government web resources and services.